Location: Bratislava
(48.1500°N, 17.1167°E)
Time: 11:35:14
(UTC+02:00)

ISS - Visible Passes

Search period start: 26 September 2020 00:00
Search period end: 06 October 2020 00:00
Orbit: 419 x 420 km, 51.6° (Epoch: 26 September)

Date Brightness Start Highest point End Pass type
(mag) Time Alt. Az. Time Alt. Az. Time Alt. Az.
26 Sep -2.9 20:12:02 10° WNW 20:15:17 44° N 20:16:31 29° NE visible
26 Sep -0.5 21:48:59 10° WNW 21:49:28 14° WNW 21:49:28 14° WNW visible
27 Sep -2.9 19:24:32 10° WNW 19:27:48 45° N 19:30:53 11° ENE visible
27 Sep -2.3 21:01:35 10° WNW 21:03:50 37° NW 21:03:50 37° NW visible
28 Sep -3.3 20:14:09 10° WNW 20:17:28 51° N 20:18:11 42° NE visible
28 Sep -0.3 21:51:01 10° WNW 21:51:09 11° WNW 21:51:09 11° WNW visible
29 Sep -3.1 19:26:41 10° WNW 19:29:58 46° N 19:32:33 15° ENE visible
29 Sep -1.9 21:03:34 10° WNW 21:05:30 31° WNW 21:05:30 31° WNW visible
30 Sep -3.9 20:16:08 10° WNW 20:19:31 80° NNE 20:19:53 67° E visible
01 Oct -3.6 19:28:41 10° WNW 19:32:03 62° NNE 19:34:17 19° E visible
01 Oct -1.4 21:05:39 10° WNW 21:07:15 23° W 21:07:15 23° W visible
02 Oct -3.3 20:18:05 10° WNW 20:21:24 51° SSW 20:21:42 49° S visible
03 Oct -3.7 19:30:35 10° WNW 19:33:58 75° SSW 19:36:12 20° ESE visible
03 Oct -0.8 21:08:16 10° W 21:09:10 13° WSW 21:09:10 13° WSW visible
04 Oct -1.9 20:20:18 10° W 20:23:02 23° SW 20:23:45 21° SSW visible
05 Oct -2.4 19:32:35 10° WNW 19:35:41 34° SW 19:38:25 12° SSE visible
